NORTHEAST SUFFOLK  -  Special Weather Statement Special Weather Statement        NORTHERN NASSAU  -  Special Weather Statement Special Weather Statement        NORTHWEST SUFFOLK  -  Special Weather Statement Special Weather Statement        SOUTHEAST SUFFOLK  -  Special Weather Statement Special Weather Statement        SOUTHERN NASSAU  -  Special Weather Statement Special Weather Statement        SOUTHWEST SUFFOLK  -  Special Weather Statement Special Weather Statement      

Active alerts

Northern Nassau
  Details for Northern Nassau Special Weather Statement
Southern Nassau
  Details for Southern Nassau Special Weather Statement
Northwest Suffolk
  Details for Northwest Suffolk Special Weather Statement
Southwest Suffolk
  Details for Southwest Suffolk Special Weather Statement
Northeast Suffolk
  Details for Northeast Suffolk Special Weather Statement
Southeast Suffolk
  Details for Southeast Suffolk Special Weather Statement


WXM80 ListenWXM80 Stop

You find our weather info also at:

UK Metoffice

WeatherCloud

Weather Underground

Northeastern Weather Network

AWEKAS

Citizen Weather Observer Program (CWOP)

HAMweather, WeatherForYou, PWS Weather


Weather Underground History page Text

Daily Summary for June 16, 2016 Units:  English    Metric   Both
« Previous Day
Next Day »
Daily Weekly Monthly Yearly Custom
  High: Low: Average:
Temperature: 76.3 °F 63.5 °F 69.9 °F
Dew Point: 65.7 °F 59.8 °F 63.1 °F
Humidity: 92 % 65 % 80 %
Wind Speed: 4.4 mph 0.0 mph 0.5 mph
Wind Gust: 6.0 mph - -
Wind:- - SSE
Pressure: 29.82 in 29.69 in -
Precipitation: 0.00 in    
Historical Graphs
 
 
Tabular Data for June 16, 2016
Time Temperature Dew Point Pressure Wind Wind Speed Wind Gust Humidity Rainfall Rate (Hourly)
00:04 69.0 °F 60.0 °F 29.82 in Calm   1.2 mph 73 % 0.00 in
00:09 69.0 °F 60.0 °F 29.82 in Calm   1.0 mph 73 % 0.00 in
00:14 68.9 °F 59.9 °F 29.82 in Calm   2.3 mph 73 % 0.00 in
00:25 68.8 °F 60.2 °F 29.82 in Calm     74 % 0.00 in
00:30 68.6 °F 60.0 °F 29.82 in WSW 0.4 mph 2.3 mph 74 % 0.00 in
00:45 68.4 °F 59.8 °F 29.81 in Calm     74 % 0.00 in
00:50 68.4 °F 59.8 °F 29.81 in Calm     74 % 0.00 in
01:00 68.3 °F 60.1 °F 29.81 in Calm     75 % 0.00 in
01:05 68.2 °F 60.0 °F 29.80 in Calm     75 % 0.00 in
01:10 68.1 °F 59.9 °F 29.80 in Calm     75 % 0.00 in
01:16 68.1 °F 59.9 °F 29.80 in Calm     75 % 0.00 in
01:21 68.0 °F 60.2 °F 29.81 in Calm     76 % 0.00 in
01:26 67.9 °F 60.8 °F 29.81 in Calm     78 % 0.00 in
01:31 67.7 °F 60.6 °F 29.81 in Calm     78 % 0.00 in
01:36 67.7 °F 60.6 °F 29.80 in Calm     78 % 0.00 in
01:42 67.6 °F 60.5 °F 29.80 in Calm     78 % 0.00 in
01:47 67.5 °F 60.8 °F 29.80 in Calm     79 % 0.00 in
01:52 67.4 °F 60.3 °F 29.80 in Calm     78 % 0.00 in
01:57 67.2 °F 60.1 °F 29.80 in WSW 0.3 mph 1.2 mph 78 % 0.00 in
02:02 67.2 °F 60.1 °F 29.79 in WSW 0.1 mph 1.2 mph 78 % 0.00 in
02:07 67.2 °F 60.5 °F 29.79 in Calm     79 % 0.00 in
02:12 67.1 °F 60.4 °F 29.79 in Calm     79 % 0.00 in
02:17 67.0 °F 60.3 °F 29.78 in Calm     79 % 0.00 in
02:22 67.0 °F 60.3 °F 29.78 in Calm     79 % 0.00 in
02:27 67.0 °F 60.3 °F 29.78 in Calm     79 % 0.00 in
02:38 67.0 °F 60.6 °F 29.78 in Calm     80 % 0.00 in
02:48 67.0 °F 60.6 °F 29.77 in Calm     80 % 0.00 in
02:53 67.0 °F 60.6 °F 29.77 in Calm     80 % 0.00 in
03:03 66.9 °F 60.5 °F 29.77 in WSW 0.4 mph 2.3 mph 80 % 0.00 in
03:08 66.9 °F 60.9 °F 29.77 in Calm     81 % 0.00 in
03:13 67.0 °F 61.0 °F 29.77 in WSW 0.7 mph 2.3 mph 81 % 0.00 in
03:18 66.9 °F 60.9 °F 29.77 in WSW 1.2 mph 2.0 mph 81 % 0.00 in
03:24 67.0 °F 61.0 °F 29.76 in WSW 0.1 mph 1.2 mph 81 % 0.00 in
03:29 67.0 °F 61.0 °F 29.77 in Calm   1.2 mph 81 % 0.00 in
03:39 66.9 °F 60.9 °F 29.77 in Calm     81 % 0.00 in
03:44 66.9 °F 60.9 °F 29.77 in Calm     81 % 0.00 in
03:49 66.9 °F 60.9 °F 29.77 in Calm     81 % 0.00 in
03:54 66.9 °F 60.9 °F 29.77 in Calm     81 % 0.00 in
03:59 66.9 °F 61.2 °F 29.77 in Calm     82 % 0.00 in
04:04 66.9 °F 61.2 °F 29.76 in Calm     82 % 0.00 in
04:09 66.8 °F 61.1 °F 29.76 in Calm     82 % 0.00 in
04:15 66.8 °F 61.1 °F 29.76 in Calm     82 % 0.00 in
04:20 66.8 °F 61.1 °F 29.76 in Calm     82 % 0.00 in
04:25 66.7 °F 61.4 °F 29.76 in Calm     83 % 0.00 in
04:30 66.7 °F 61.4 °F 29.76 in WSW 0.1 mph 1.2 mph 83 % 0.00 in
04:35 66.6 °F 61.3 °F 29.76 in Calm     83 % 0.00 in
04:40 66.6 °F 61.3 °F 29.76 in Calm     83 % 0.00 in
04:45 66.6 °F 61.3 °F 29.76 in Calm     83 % 0.00 in
04:50 66.5 °F 61.2 °F 29.76 in Calm     83 % 0.00 in
04:55 66.4 °F 61.1 °F 29.76 in Calm     83 % 0.00 in
05:00 66.3 °F 61.0 °F 29.76 in Calm     83 % 0.00 in
05:06 66.2 °F 60.9 °F 29.76 in Calm     83 % 0.00 in
05:11 66.2 °F 61.6 °F 29.76 in Calm     85 % 0.00 in
05:16 66.1 °F 61.5 °F 29.76 in Calm     85 % 0.00 in
05:21 66.0 °F 61.4 °F 29.76 in Calm     85 % 0.00 in
05:26 65.9 °F 61.3 °F 29.76 in Calm     85 % 0.00 in
05:31 65.8 °F 61.2 °F 29.76 in Calm     85 % 0.00 in
05:36 65.8 °F 61.2 °F 29.76 in Calm     85 % 0.00 in
05:41 65.8 °F 61.2 °F 29.76 in Calm     85 % 0.00 in
05:46 65.7 °F 61.4 °F 29.76 in Calm     86 % 0.00 in
05:51 65.7 °F 61.1 °F 29.76 in Calm     85 % 0.00 in
05:57 65.7 °F 61.1 °F 29.76 in Calm     85 % 0.00 in
06:07 65.6 °F 61.3 °F 29.76 in Calm     86 % 0.00 in
06:12 65.6 °F 61.3 °F 29.76 in Calm     86 % 0.00 in
06:17 65.6 °F 61.3 °F 29.76 in Calm     86 % 0.00 in
06:22 65.6 °F 61.6 °F 29.76 in Calm     87 % 0.00 in
06:27 65.6 °F 61.6 °F 29.76 in Calm   1.2 mph 87 % 0.00 in
06:32 65.6 °F 61.6 °F 29.76 in Calm     87 % 0.00 in
06:37 65.6 °F 61.6 °F 29.76 in Calm     87 % 0.00 in
06:42 65.7 °F 62.0 °F 29.76 in Calm     88 % 0.00 in
06:48 65.7 °F 62.0 °F 29.76 in Calm     88 % 0.00 in
06:53 65.7 °F 62.0 °F 29.76 in Calm     88 % 0.00 in
06:58 65.8 °F 62.1 °F 29.76 in Calm     88 % 0.00 in
07:03 65.8 °F 62.1 °F 29.76 in Calm     88 % 0.00 in
07:08 65.9 °F 62.2 °F 29.76 in Calm     88 % 0.00 in
07:13 65.9 °F 62.6 °F 29.76 in Calm     89 % 0.00 in
07:18 66.0 °F 62.7 °F 29.77 in Calm   1.0 mph 89 % 0.00 in
07:23 66.0 °F 62.7 °F 29.77 in Calm     89 % 0.00 in
07:28 66.1 °F 62.8 °F 29.77 in Calm     89 % 0.00 in
07:33 66.2 °F 63.2 °F 29.77 in Calm     90 % 0.00 in
07:44 66.3 °F 63.3 °F 29.77 in NNE 0.4 mph 1.2 mph 90 % 0.00 in
07:49 66.4 °F 63.1 °F 29.77 in NNE 0.5 mph 1.2 mph 89 % 0.00 in
07:54 66.5 °F 63.5 °F 29.77 in NNE 1.2 mph 2.3 mph 90 % 0.00 in
07:59 66.6 °F 63.6 °F 29.77 in Calm   1.2 mph 90 % 0.00 in
08:04 66.7 °F 63.7 °F 29.77 in NNE 0.1 mph 1.2 mph 90 % 0.00 in
08:09 66.7 °F 63.7 °F 29.77 in NNE 0.4 mph 1.2 mph 90 % 0.00 in
08:14 66.8 °F 64.1 °F 29.77 in Calm   1.2 mph 91 % 0.00 in
08:19 66.9 °F 64.2 °F 29.77 in Calm     91 % 0.00 in
08:24 67.1 °F 64.7 °F 29.78 in NNE 2.1 mph 2.1 mph 92 % 0.00 in
08:30 67.1 °F 64.7 °F 29.78 in NNE 1.3 mph 3.5 mph 92 % 0.00 in
08:35 67.2 °F 64.8 °F 29.78 in NNE 2.6 mph 3.5 mph 92 % 0.00 in
08:40 67.1 °F 64.4 °F 29.78 in NE 2.0 mph 3.5 mph 91 % 0.00 in
08:45 67.0 °F 64.0 °F 29.78 in Calm     90 % 0.00 in
08:50 67.0 °F 64.0 °F 29.77 in NE 0.3 mph 2.3 mph 90 % 0.00 in
08:55 67.0 °F 64.0 °F 29.77 in Calm     90 % 0.00 in
09:00 67.1 °F 64.4 °F 29.77 in Calm     91 % 0.00 in
09:05 67.2 °F 64.5 °F 29.77 in Calm     91 % 0.00 in
09:10 67.3 °F 64.6 °F 29.77 in NE 0.3 mph 1.2 mph 91 % 0.00 in
09:15 67.4 °F 64.4 °F 29.76 in Calm     90 % 0.00 in
09:21 67.5 °F 64.5 °F 29.76 in Calm   1.0 mph 90 % 0.00 in
09:26 67.6 °F 64.6 °F 29.76 in NE 0.8 mph 2.3 mph 90 % 0.00 in
09:31 67.7 °F 64.3 °F 29.76 in NE 0.1 mph 1.2 mph 89 % 0.00 in
09:36 67.8 °F 64.1 °F 29.76 in NE 0.8 mph 2.3 mph 88 % 0.00 in
09:41 67.9 °F 64.2 °F 29.76 in NE 0.8 mph 2.3 mph 88 % 0.00 in
09:46 68.0 °F 64.3 °F 29.76 in NE 0.2 mph 2.0 mph 88 % 0.00 in
09:51 68.1 °F 64.4 °F 29.76 in NE 1.3 mph 2.3 mph 88 % 0.00 in
09:56 68.2 °F 64.2 °F 29.76 in NE 1.0 mph 3.0 mph 87 % 0.00 in
10:01 68.4 °F 64.7 °F 29.76 in Calm   1.2 mph 88 % 0.00 in
10:06 68.6 °F 64.9 °F 29.76 in NE 1.2 mph 3.5 mph 88 % 0.00 in
10:12 68.6 °F 64.6 °F 29.76 in NE 1.8 mph 4.6 mph 87 % 0.00 in
10:17 68.5 °F 64.1 °F 29.76 in NNE 2.0 mph 3.5 mph 86 % 0.00 in
10:22 68.6 °F 64.2 °F 29.76 in Calm   1.2 mph 86 % 0.00 in
10:27 68.6 °F 64.2 °F 29.77 in Calm     86 % 0.00 in
10:32 68.6 °F 64.2 °F 29.77 in NNE 0.7 mph 2.3 mph 86 % 0.00 in
10:37 68.7 °F 64.7 °F 29.76 in Calm   1.2 mph 87 % 0.00 in
10:42 68.6 °F 64.2 °F 29.76 in Calm     86 % 0.00 in
10:47 68.8 °F 64.4 °F 29.77 in NNE 1.4 mph 2.3 mph 86 % 0.00 in
10:52 69.0 °F 64.6 °F 29.77 in NNE 1.3 mph 2.3 mph 86 % 0.00 in
10:57 69.1 °F 64.7 °F 29.77 in NNE 0.3 mph 1.2 mph 86 % 0.00 in
11:03 69.3 °F 64.9 °F 29.77 in NNE 1.0 mph 2.3 mph 86 % 0.00 in
11:08 69.4 °F 64.7 °F 29.77 in NNE 0.1 mph 1.2 mph 85 % 0.00 in
11:13 69.6 °F 64.2 °F 29.77 in NNE 0.5 mph 2.3 mph 83 % 0.00 in
11:18 69.7 °F 64.3 °F 29.77 in NNE 1.6 mph 3.5 mph 83 % 0.00 in
11:23 70.1 °F 64.7 °F 29.77 in NNE 1.2 mph 2.3 mph 83 % 0.00 in
11:33 70.6 °F 64.1 °F 29.77 in NE 0.3 mph 1.2 mph 80 % 0.00 in
11:38 70.8 °F 64.7 °F 29.76 in NE 1.2 mph 2.3 mph 81 % 0.00 in
11:43 70.9 °F 64.4 °F 29.76 in Calm   1.2 mph 80 % 0.00 in
11:49 71.1 °F 64.6 °F 29.77 in NNE 1.0 mph 3.0 mph 80 % 0.00 in
11:54 71.2 °F 64.7 °F 29.76 in NNE 0.6 mph 2.3 mph 80 % 0.00 in
11:59 71.3 °F 64.4 °F 29.76 in Calm     79 % 0.00 in
12:04 71.3 °F 64.1 °F 29.77 in NNE 0.7 mph 2.3 mph 78 % 0.00 in
12:09 71.3 °F 64.1 °F 29.77 in NNE 0.6 mph 1.2 mph 78 % 0.00 in
12:14 71.2 °F 64.0 °F 29.77 in NNE 0.1 mph 1.2 mph 78 % 0.00 in
12:19 71.0 °F 63.4 °F 29.76 in Calm     77 % 0.00 in
12:24 71.1 °F 64.3 °F 29.76 in Calm     79 % 0.00 in
12:29 71.2 °F 64.4 °F 29.76 in NNE 0.4 mph 1.2 mph 79 % 0.00 in
12:34 71.3 °F 63.7 °F 29.76 in Calm     77 % 0.00 in
12:40 71.6 °F 64.0 °F 29.76 in ENE 1.1 mph 2.3 mph 77 % 0.00 in
12:45 72.1 °F 64.5 °F 29.76 in NE 0.7 mph 3.0 mph 77 % 0.00 in
12:50 72.4 °F 63.3 °F 29.76 in NE 0.1 mph 2.3 mph 73 % 0.00 in
12:55 72.7 °F 63.9 °F 29.76 in NNE 1.6 mph 3.5 mph 74 % 0.00 in
13:00 72.7 °F 63.9 °F 29.76 in NNE 0.8 mph 1.2 mph 74 % 0.00 in
13:05 72.6 °F 64.2 °F 29.75 in Calm   1.2 mph 75 % 0.00 in
13:10 72.6 °F 64.2 °F 29.75 in Calm     75 % 0.00 in
13:15 72.6 °F 64.2 °F 29.75 in NE 2.7 mph 3.5 mph 75 % 0.00 in
13:20 73.2 °F 64.8 °F 29.75 in ENE 1.1 mph 3.5 mph 75 % 0.00 in
13:25 74.0 °F 63.6 °F 29.76 in ENE 1.2 mph 2.3 mph 70 % 0.00 in
13:30 74.3 °F 63.5 °F 29.76 in NE 0.6 mph 3.5 mph 69 % 0.00 in
13:35 74.6 °F 64.2 °F 29.76 in NE 0.1 mph 1.2 mph 70 % 0.00 in
13:40 74.9 °F 63.2 °F 29.76 in NE 0.4 mph 2.3 mph 67 % 0.00 in
13:46 75.1 °F 63.8 °F 29.76 in NE 0.1 mph   68 % 0.00 in
13:51 75.3 °F 64.4 °F 29.76 in NNE 0.7 mph 3.5 mph 69 % 0.00 in
13:56 75.4 °F 64.5 °F 29.76 in NNE 0.1 mph 3.5 mph 69 % 0.00 in
14:01 75.5 °F 62.9 °F 29.76 in NNE 1.4 mph 3.5 mph 65 % 0.00 in
14:06 75.4 °F 63.7 °F 29.76 in Calm   1.2 mph 67 % 0.00 in
14:11 75.3 °F 64.0 °F 29.75 in Calm   1.2 mph 68 % 0.00 in
14:16 75.0 °F 63.7 °F 29.75 in Calm     68 % 0.00 in
14:21 74.9 °F 64.0 °F 29.75 in NNE 0.3 mph 1.2 mph 69 % 0.00 in
14:26 74.8 °F 64.4 °F 29.75 in Calm     70 % 0.00 in
14:31 74.6 °F 64.6 °F 29.75 in Calm     71 % 0.00 in
14:37 74.6 °F 64.6 °F 29.75 in Calm   2.3 mph 71 % 0.00 in
14:42 74.6 °F 64.2 °F 29.75 in Calm   1.2 mph 70 % 0.00 in
14:47 74.6 °F 63.8 °F 29.75 in Calm   1.0 mph 69 % 0.00 in
14:52 74.7 °F 63.9 °F 29.75 in Calm     69 % 0.00 in
14:57 74.8 °F 65.2 °F 29.75 in Calm     72 % 0.00 in
15:02 74.7 °F 63.9 °F 29.75 in NNE 0.1 mph 1.2 mph 69 % 0.00 in
15:07 74.7 °F 64.7 °F 29.75 in Calm     71 % 0.00 in
15:08 74.7 °F 64.7 °F 29.75 in Calm     71 % 0.00 in
15:13 74.6 °F 64.6 °F 29.75 in NNE 1.9 mph 3.5 mph 71 % 0.00 in
15:16 74.6 °F 64.6 °F 29.75 in WNW 1.8 mph 3.5 mph 71 % 0.00 in
15:21 74.5 °F 64.5 °F 29.75 in WNW 0.3 mph 3.5 mph 71 % 0.00 in
15:22 74.5 °F 64.5 °F 29.75 in Calm   1.2 mph 71 % 0.00 in
15:23 74.5 °F 64.5 °F 29.75 in Calm     71 % 0.00 in
15:26 74.5 °F 64.5 °F 29.75 in WSW 1.7 mph 3.5 mph 71 % 0.00 in
15:28 74.5 °F 64.9 °F 29.74 in WSW 0.4 mph 2.3 mph 72 % 0.00 in
15:30 74.5 °F 65.3 °F 29.75 in WSW 0.8 mph 2.3 mph 73 % 0.00 in
15:31 74.5 °F 65.3 °F 29.74 in WSW 0.6 mph 2.3 mph 73 % 0.00 in
15:34 74.4 °F 64.8 °F 29.75 in SW 2.0 mph 3.5 mph 72 % 0.00 in
15:39 74.4 °F 64.8 °F 29.75 in SW 2.4 mph 3.5 mph 72 % 0.00 in
15:44 74.2 °F 64.2 °F 29.75 in WSW 2.7 mph 5.8 mph 71 % 0.00 in
15:46 74.0 °F 64.0 °F 29.74 in WSW 0.9 mph 5.8 mph 71 % 0.00 in
15:47 74.0 °F 64.0 °F 29.74 in WSW 0.6 mph 5.8 mph 71 % 0.00 in
15:50 73.9 °F 64.3 °F 29.74 in SW 0.9 mph 3.5 mph 72 % 0.00 in
15:51 73.9 °F 64.3 °F 29.74 in SW 0.3 mph 2.3 mph 72 % 0.00 in
15:56 73.7 °F 64.5 °F 29.74 in WSW 0.4 mph 3.5 mph 73 % 0.00 in
15:57 73.7 °F 64.5 °F 29.74 in WSW 0.6 mph 3.5 mph 73 % 0.00 in
15:59 73.6 °F 64.0 °F 29.74 in SW 1.9 mph 4.0 mph 72 % 0.00 in
16:00 73.6 °F 64.0 °F 29.74 in WSW 3.3 mph 6.0 mph 72 % 0.00 in
16:04 73.4 °F 63.4 °F 29.74 in WSW 0.7 mph 2.3 mph 71 % 0.00 in
16:06 73.3 °F 63.7 °F 29.74 in WSW 1.5 mph 3.5 mph 72 % 0.00 in
16:08 73.3 °F 63.7 °F 29.74 in SW 1.3 mph 3.5 mph 72 % 0.00 in
16:10 73.3 °F 62.9 °F 29.74 in SW 1.1 mph 3.5 mph 70 % 0.00 in
16:15 73.2 °F 63.2 °F 29.74 in SW 2.0 mph 3.5 mph 71 % 0.00 in
16:20 73.2 °F 63.6 °F 29.73 in SSW 1.8 mph 3.5 mph 72 % 0.00 in
16:25 73.2 °F 63.2 °F 29.73 in WSW 2.7 mph 4.0 mph 71 % 0.00 in
16:30 73.2 °F 63.2 °F 29.73 in WSW 3.0 mph 5.0 mph 71 % 0.00 in
16:35 73.4 °F 64.2 °F 29.73 in SSW 3.2 mph 4.0 mph 73 % 0.00 in
16:41 73.8 °F 63.8 °F 29.73 in SSW 1.0 mph 5.8 mph 71 % 0.00 in
16:46 74.2 °F 63.8 °F 29.73 in SW 1.3 mph 3.5 mph 70 % 0.00 in
16:51 74.5 °F 63.7 °F 29.72 in WNW 4.4 mph 5.8 mph 69 % 0.00 in
16:56 74.8 °F 63.1 °F 29.72 in SW 1.6 mph 3.5 mph 67 % 0.00 in
17:01 75.0 °F 63.3 °F 29.71 in WNW 0.9 mph 3.5 mph 67 % 0.00 in
17:06 75.3 °F 63.6 °F 29.71 in WNW 1.7 mph 3.5 mph 67 % 0.00 in
17:11 75.5 °F 64.2 °F 29.71 in SW 1.6 mph 4.6 mph 68 % 0.00 in
17:16 75.6 °F 64.3 °F 29.71 in SW 3.1 mph 4.0 mph 68 % 0.00 in
17:21 75.8 °F 64.1 °F 29.71 in NNW 2.4 mph 3.5 mph 67 % 0.00 in
17:26 75.9 °F 64.2 °F 29.71 in WSW 1.8 mph 2.3 mph 67 % 0.00 in
17:37 76.2 °F 64.0 °F 29.71 in WNW 2.9 mph 4.6 mph 66 % 0.00 in
17:42 76.3 °F 64.5 °F 29.70 in WNW 1.9 mph 3.5 mph 67 % 0.00 in
17:47 76.2 °F 65.3 °F 29.70 in NW 1.6 mph 3.5 mph 69 % 0.00 in
17:52 76.1 °F 65.2 °F 29.70 in WSW 2.5 mph 4.6 mph 69 % 0.00 in
17:57 76.0 °F 65.1 °F 29.69 in WSW 0.4 mph 2.3 mph 69 % 0.00 in
18:02 75.9 °F 65.0 °F 29.69 in SSW 2.2 mph 3.5 mph 69 % 0.00 in
18:07 75.8 °F 64.5 °F 29.69 in WSW 3.6 mph 5.0 mph 68 % 0.00 in
18:12 75.6 °F 64.7 °F 29.70 in SW 1.8 mph 3.5 mph 69 % 0.00 in
18:17 75.5 °F 65.4 °F 29.70 in WSW 1.5 mph 3.5 mph 71 % 0.00 in
18:23 75.3 °F 64.8 °F 29.69 in SW 1.9 mph 4.6 mph 70 % 0.00 in
18:28 75.2 °F 64.7 °F 29.69 in WSW 1.8 mph 3.5 mph 70 % 0.00 in
18:33 75.1 °F 65.5 °F 29.70 in WSW 2.0 mph 3.5 mph 72 % 0.00 in
18:38 75.0 °F 65.4 °F 29.70 in WSW 1.3 mph 3.5 mph 72 % 0.00 in
18:43 74.9 °F 65.7 °F 29.70 in WSW 0.7 mph 1.2 mph 73 % 0.00 in
18:48 74.8 °F 65.6 °F 29.69 in WSW 1.0 mph 2.3 mph 73 % 0.00 in
18:53 74.7 °F 65.5 °F 29.70 in WSW 0.6 mph 3.5 mph 73 % 0.00 in
18:58 74.6 °F 65.4 °F 29.70 in WSW 0.9 mph 3.5 mph 73 % 0.00 in
19:03 74.4 °F 65.2 °F 29.70 in WSW 1.4 mph 3.0 mph 73 % 0.00 in
19:09 74.3 °F 65.5 °F 29.70 in WSW 1.5 mph 3.5 mph 74 % 0.00 in
19:14 74.3 °F 65.5 °F 29.70 in WSW 0.9 mph 3.0 mph 74 % 0.00 in
19:19 74.2 °F 65.4 °F 29.70 in WSW 1.0 mph 2.3 mph 74 % 0.00 in
19:24 74.1 °F 65.3 °F 29.71 in WSW 0.6 mph 2.3 mph 74 % 0.00 in
19:29 74.0 °F 65.2 °F 29.71 in WSW 1.4 mph 3.0 mph 74 % 0.00 in
19:34 73.9 °F 65.1 °F 29.71 in WSW 1.1 mph 3.5 mph 74 % 0.00 in
19:39 73.7 °F 64.9 °F 29.71 in WSW 2.2 mph 3.5 mph 74 % 0.00 in
19:44 73.5 °F 64.7 °F 29.71 in WSW 1.4 mph 2.3 mph 74 % 0.00 in
19:49 73.3 °F 64.9 °F 29.72 in WSW 1.2 mph 3.5 mph 75 % 0.00 in
19:54 73.1 °F 64.7 °F 29.71 in WSW 0.1 mph 2.3 mph 75 % 0.00 in
20:00 72.8 °F 64.4 °F 29.71 in Calm     75 % 0.00 in
20:05 72.6 °F 64.6 °F 29.72 in WSW 0.4 mph 1.2 mph 76 % 0.00 in
20:10 72.4 °F 64.8 °F 29.72 in WSW 0.2 mph 2.3 mph 77 % 0.00 in
20:15 72.1 °F 64.9 °F 29.72 in Calm     78 % 0.00 in
20:20 71.8 °F 64.6 °F 29.72 in Calm     78 % 0.00 in
20:25 71.5 °F 64.6 °F 29.72 in Calm   1.2 mph 79 % 0.00 in
20:30 71.2 °F 64.7 °F 29.72 in Calm     80 % 0.00 in
20:35 70.9 °F 64.4 °F 29.72 in Calm     80 % 0.00 in
20:40 70.6 °F 64.5 °F 29.72 in Calm     81 % 0.00 in
20:45 70.3 °F 64.2 °F 29.72 in Calm     81 % 0.00 in
20:51 70.0 °F 64.2 °F 29.72 in Calm     82 % 0.00 in
20:56 69.7 °F 64.3 °F 29.72 in Calm     83 % 0.00 in
21:01 69.4 °F 64.0 °F 29.72 in Calm     83 % 0.00 in
21:06 69.2 °F 64.2 °F 29.72 in Calm     84 % 0.00 in
21:11 68.9 °F 63.9 °F 29.72 in Calm     84 % 0.00 in
21:16 68.7 °F 63.7 °F 29.72 in Calm     84 % 0.00 in
21:21 68.5 °F 63.8 °F 29.73 in Calm     85 % 0.00 in
21:26 68.3 °F 63.6 °F 29.73 in Calm     85 % 0.00 in
21:31 68.0 °F 63.3 °F 29.73 in Calm     85 % 0.00 in
21:36 67.8 °F 63.1 °F 29.73 in Calm     85 % 0.00 in
21:42 67.6 °F 63.3 °F 29.73 in Calm     86 % 0.00 in
21:47 67.3 °F 63.0 °F 29.74 in Calm     86 % 0.00 in
21:52 67.2 °F 62.9 °F 29.74 in Calm     86 % 0.00 in
21:57 66.9 °F 62.6 °F 29.74 in Calm     86 % 0.00 in
22:02 66.7 °F 62.7 °F 29.73 in Calm     87 % 0.00 in
22:07 66.6 °F 62.6 °F 29.73 in Calm     87 % 0.00 in
22:12 66.4 °F 62.4 °F 29.73 in Calm     87 % 0.00 in
22:17 66.1 °F 62.1 °F 29.73 in Calm     87 % 0.00 in
22:22 66.0 °F 62.3 °F 29.74 in Calm     88 % 0.00 in
22:27 65.8 °F 62.1 °F 29.74 in Calm     88 % 0.00 in
22:33 65.7 °F 62.0 °F 29.74 in Calm     88 % 0.00 in
22:38 65.6 °F 61.9 °F 29.74 in Calm     88 % 0.00 in
22:43 65.4 °F 61.8 °F 29.74 in Calm     88 % 0.00 in
22:48 65.2 °F 61.9 °F 29.74 in Calm     89 % 0.00 in
22:53 65.1 °F 61.8 °F 29.74 in Calm     89 % 0.00 in
22:58 65.0 °F 61.7 °F 29.74 in Calm     89 % 0.00 in
23:03 64.8 °F 61.5 °F 29.74 in Calm     89 % 0.00 in
23:08 64.7 °F 61.4 °F 29.75 in Calm     89 % 0.00 in
23:13 64.6 °F 61.6 °F 29.75 in Calm     90 % 0.00 in
23:18 64.5 °F 61.5 °F 29.74 in Calm     90 % 0.00 in
23:24 64.3 °F 61.3 °F 29.74 in Calm     90 % 0.00 in
23:29 64.2 °F 61.2 °F 29.74 in Calm     90 % 0.00 in
23:34 64.1 °F 61.1 °F 29.74 in Calm     90 % 0.00 in
23:39 64.0 °F 61.0 °F 29.74 in Calm     90 % 0.00 in
23:44 63.9 °F 60.9 °F 29.74 in Calm     90 % 0.00 in
23:49 63.7 °F 60.7 °F 29.74 in Calm     90 % 0.00 in
23:54 63.6 °F 60.6 °F 29.74 in Calm     90 % 0.00 in
23:59 63.5 °F 60.8 °F 29.74 in Calm     91 % 0.00 in
Crab Meadow Weather
Compliments of Weather Underground - 3 mb

Script developed by  Jim McMurry - jmcmurry@mwt.net Adapted for the template by  Wim van der Kuil - Leuven-Template.eu

Wind Chill: Everyone has noticed that in winter it seems colder when the wind is blowing. Mothers recognize this and tell their children to wear more clothes. The question the children ask is how much more clothes. Mothers answer very precisely because Mothers know everything. For the rest of us, wind chill calculations are the basis for determining the effect of wind on body heat loss. The wind chill equivalent temperature equation is: Wind chill temperature = 35.74 + 0.6215T - 35.75V (**0.16) + 0.4275TV(**0.16) where T is the air temperature in Fahrenheit and V is the wind speed in MPH.